Weather History for Rochelle, IL

Change the Weather History Date:

Monday, April 7, 2014

  Actual Average (KRFD) Record (KRFD)
Temperature  
Mean Temperature 48 °F 46 °F  
Max Temperature 60 °F 57 °F 81 °F (1921)
Min Temperature 35 °F 35 °F 5 °F (1982)
Degree Days  
Heating Degree Days 18 19  
Month to date heating degree days 141  
Since 1 July heating degree days 6005  
Cooling Degree Days 0 0  
Month to date cooling degree days 0  
Year to date cooling degree days 0  
Moisture  
Dew Point 32 °F    
Average Humidity 60    
Maximum Humidity 87    
Minimum Humidity 29    
Precipitation  
Precipitation 0.00 in 0.12 in 1.65 in (1954)
Month to date precipitation 0.75  
Year to date precipitation 5.85  
Snow  
Snow 0.00 in 0.00 in 2.50 in (1972)
Month to date snowfall 0.4  
Since 1 July snowfall 36.2  
Snow Depth -    
Sea Level Pressure  
Sea Level Pressure 29.75 in    
Wind  
Wind Speed 7 mph (NE)    
Max Wind Speed 16 mph    
Max Gust Speed 24 mph    
Visibility 10 miles    
Events Rain    
T = Trace of Precipitation, MM = Missing Value Source: NWS Daily Summary

Daily Weather History Graph

Daily Weather History Graph

Search for Another Location

Airport:

Trip Planner

Search our weather history database for the weather conditions in past years. The results will help you decide how hot, cold, wet, or windy it might be!

Date:

Astronomy

Apr. 07, 2014 Rise Set
Actual Time 6:29 AM CDT 7:28 PM CDT
Civil Twilight 6:00 AM CDT 7:57 PM CDT
Nautical Twilight 5:26 AM CDT 8:30 PM CDT
Astronomical Twilight 4:51 AM CDT 9:06 PM CDT
Moon 12:22 PM CDT (4/7) 2:08 AM CDT (4/7)
Length of Visible Light 13h 56m
Length of Day
12h 59m
First Quarter, 53% of the Moon is Illuminated
Apr 7
First Quarter
Apr 15
Full
Apr 22
Last Quarter
Apr 29
New
May 6
First Quarter

Hourly Weather History & Observations

Time (CDT) Temp. Windchill Dew Point Humidity Pressure Visibility Wind Dir Wind Speed Gust Speed Precip Events Conditions
12:15 AM 37.4 °F 32.8 °F 32.2 °F 81% 29.94 in 10.0 mi ESE 5.8 mph - N/A   Clear
12:35 AM 38.5 °F 33.4 °F 32.9 °F 80% 29.93 in 10.0 mi SE 6.9 mph - N/A   Clear
12:55 AM 38.7 °F 32.4 °F 32.9 °F 80% 29.92 in 10.0 mi SE 9.2 mph - N/A   Clear
1:15 AM 38.5 °F 32.1 °F 32.9 °F 80% 29.91 in 10.0 mi SE 9.2 mph - N/A   Clear
1:35 AM 38.5 °F 33.4 °F 32.4 °F 79% 29.90 in 10.0 mi ESE 6.9 mph - N/A   Clear
1:55 AM 37.8 °F 33.3 °F 32.0 °F 80% 29.89 in 10.0 mi ESE 5.8 mph - N/A   Clear
2:15 AM 37.2 °F 32.6 °F 32.2 °F 82% 29.89 in 10.0 mi ESE 5.8 mph - N/A   Clear
2:35 AM 37.0 °F - 32.0 °F 82% 29.88 in 10.0 mi Calm Calm - N/A   Clear
2:55 AM 36.1 °F - 31.1 °F 82% 29.87 in 10.0 mi Calm Calm - N/A   Mostly Cloudy
3:15 AM 36.7 °F 32.9 °F 31.6 °F 82% 29.86 in 10.0 mi ENE 4.6 mph - N/A   Scattered Clouds
3:35 AM 37.4 °F 33.8 °F 32.0 °F 81% 29.86 in 10.0 mi East 4.6 mph - N/A   Clear
3:55 AM 36.7 °F 32.0 °F 31.5 °F 81% 29.84 in 10.0 mi ENE 5.8 mph - N/A   Clear
4:15 AM 36.9 °F 32.2 °F 32.0 °F 83% 29.83 in 10.0 mi ENE 5.8 mph - N/A   Clear
4:35 AM 36.5 °F 33.9 °F 31.6 °F 83% 29.82 in 10.0 mi NE 3.5 mph - N/A   Clear
4:55 AM 35.2 °F 29.5 °F 30.9 °F 84% 29.82 in 10.0 mi NE 6.9 mph - N/A   Clear
5:15 AM 36.0 °F 33.3 °F 32.0 °F 86% 29.83 in 10.0 mi ENE 3.5 mph - N/A   Clear
5:35 AM 36.0 °F 33.3 °F 31.8 °F 85% 29.84 in 10.0 mi East 3.5 mph - N/A   Clear
5:55 AM 35.8 °F 31.9 °F 31.8 °F 86% 29.85 in 10.0 mi ESE 4.6 mph - N/A   Clear
6:15 AM 35.8 °F 30.9 °F 31.8 °F 86% 29.86 in 10.0 mi SSE 5.8 mph - N/A   Clear
6:35 AM 35.6 °F 30.7 °F 31.8 °F 86% 29.86 in 10.0 mi ESE 5.8 mph - N/A   Clear
6:55 AM 35.6 °F 30.7 °F 32.0 °F 87% 29.85 in 10.0 mi East 5.8 mph - N/A   Clear
7:15 AM 36.5 °F 32.7 °F 32.4 °F 85% 29.84 in 10.0 mi NE 4.6 mph - N/A   Clear
7:35 AM 38.1 °F 33.7 °F 33.6 °F 84% 29.84 in 10.0 mi North 5.8 mph - N/A   Clear
7:55 AM 40.1 °F 36.1 °F 33.6 °F 78% 29.83 in 10.0 mi NE 5.8 mph - N/A   Clear
8:15 AM 41.9 °F 36.9 °F 33.4 °F 72% 29.82 in 10.0 mi NE 8.1 mph - N/A   Clear
8:35 AM 42.3 °F 37.9 °F 33.1 °F 70% 29.82 in 10.0 mi NNE 6.9 mph - N/A   Clear
8:55 AM 44.2 °F 40.3 °F 33.6 °F 66% 29.81 in 10.0 mi NE 6.9 mph - N/A   Clear
9:15 AM 45.5 °F 41.8 °F 34.9 °F 66% 29.80 in 10.0 mi ENE 6.9 mph - N/A   Clear
9:55 AM 49.5 °F - 34.5 °F 56% 29.78 in 10.0 mi ENE 8.1 mph - N/A   Clear
10:15 AM 51.6 °F - 34.3 °F 52% 29.78 in 10.0 mi NE 9.2 mph - N/A   Clear
10:35 AM 53.4 °F - 33.3 °F 46% 29.77 in 10.0 mi NE 11.5 mph - N/A   Clear
10:55 AM 53.1 °F - 31.6 °F 44% 29.76 in 10.0 mi NE 11.5 mph - N/A   Clear
11:15 AM 54.1 °F - 31.6 °F 42% 29.74 in 10.0 mi NNE 15.0 mph - N/A   Clear
11:35 AM 55.4 °F - 31.6 °F 40% 29.72 in 10.0 mi NNE 16.1 mph - N/A   Clear
11:55 AM 56.8 °F - 32.9 °F 40% 29.71 in 10.0 mi NE 12.7 mph 19.6 mph N/A   Clear
12:15 PM 57.6 °F - 32.2 °F 38% 29.70 in 10.0 mi NE 13.8 mph 19.6 mph N/A   Clear
12:35 PM 58.3 °F - 30.4 °F 35% 29.69 in 10.0 mi NE 12.7 mph 24.2 mph N/A   Clear
12:55 PM 59.9 °F - 30.4 °F 33% 29.69 in 10.0 mi NE 12.7 mph - N/A   Clear
1:15 PM 60.6 °F - 30.6 °F 32% 29.69 in 10.0 mi NE 12.7 mph 23.0 mph N/A   Clear
1:35 PM 60.1 °F - 28.8 °F 30% 29.68 in 10.0 mi NE 10.4 mph 17.3 mph N/A   Clear
1:55 PM 59.5 °F - 27.5 °F 30% 29.67 in 10.0 mi NE 10.4 mph - N/A   Clear
2:15 PM 59.4 °F - 27.1 °F 29% 29.66 in 10.0 mi NE 11.5 mph 17.3 mph N/A   Clear
2:35 PM 59.2 °F - 27.3 °F 30% 29.66 in 10.0 mi ENE 10.4 mph - N/A   Clear
2:55 PM 59.0 °F - 27.5 °F 30% 29.65 in 10.0 mi NE 12.7 mph - N/A   Clear
3:15 PM 58.6 °F - 27.7 °F 31% 29.65 in 10.0 mi ENE 9.2 mph - N/A   Clear
3:35 PM 58.3 °F - 28.2 °F 32% 29.65 in 10.0 mi ENE 8.1 mph - N/A   Clear
3:55 PM 58.1 °F - 28.2 °F 32% 29.65 in 10.0 mi NE 8.1 mph - N/A   Clear
4:15 PM 58.1 °F - 28.6 °F 32% 29.65 in 10.0 mi NE 9.2 mph - N/A   Clear
4:55 PM 58.1 °F - 28.4 °F 32% 29.64 in 10.0 mi ENE 8.1 mph - N/A   Clear
5:15 PM 57.6 °F - 28.6 °F 33% 29.64 in 10.0 mi ENE 6.9 mph - N/A   Scattered Clouds
5:35 PM 57.2 °F - 28.4 °F 33% 29.64 in 10.0 mi East 5.8 mph - N/A   Mostly Cloudy
5:55 PM 55.9 °F - 30.4 °F 38% 29.64 in 10.0 mi East 6.9 mph - N/A   Mostly Cloudy
6:15 PM 55.2 °F - 30.0 °F 38% 29.63 in 10.0 mi East 5.8 mph - N/A   Scattered Clouds
6:35 PM 54.3 °F - 29.8 °F 39% 29.63 in 10.0 mi East 5.8 mph - N/A   Mostly Cloudy
6:55 PM 53.1 °F - 30.6 °F 42% 29.63 in 10.0 mi East 3.5 mph - N/A   Overcast
7:15 PM 51.6 °F - 30.7 °F 45% 29.64 in 10.0 mi Calm Calm - N/A   Overcast
7:35 PM 50.9 °F - 31.1 °F 47% 29.64 in 10.0 mi Calm Calm - N/A   Overcast
7:55 PM 49.5 °F - 32.4 °F 52% 29.64 in 10.0 mi Calm Calm - N/A   Scattered Clouds
8:15 PM 48.2 °F - 31.3 °F 52% 29.65 in 10.0 mi Calm Calm - N/A   Mostly Cloudy
8:35 PM 48.4 °F - 32.0 °F 53% 29.66 in 10.0 mi Calm Calm - N/A   Overcast
8:55 PM 49.1 °F - 34.2 °F 56% 29.67 in 10.0 mi NW 4.6 mph - N/A   Overcast
9:15 PM 49.3 °F - 34.7 °F 57% 29.67 in 10.0 mi NNW 5.8 mph - N/A   Overcast
9:35 PM 49.5 °F - 36.1 °F 60% 29.67 in 10.0 mi North 3.5 mph - N/A   Overcast
9:55 PM 49.1 °F - 37.9 °F 65% 29.67 in 10.0 mi North 3.5 mph - N/A Rain Light Rain
10:15 PM 48.7 °F - 40.6 °F 74% 29.67 in 10.0 mi NNW 5.8 mph - N/A Rain Light Rain
10:35 PM 48.4 °F - 41.9 °F 78% 29.67 in 10.0 mi NNW 5.8 mph - N/A Rain Light Rain
10:55 PM 48.4 °F - 42.8 °F 81% 29.67 in 10.0 mi NW 4.6 mph - N/A   Overcast
11:15 PM 47.8 °F - 42.3 °F 81% 29.67 in 10.0 mi WNW 4.6 mph - N/A   Overcast
11:35 PM 46.8 °F - 41.9 °F 83% 29.67 in 10.0 mi WNW 4.6 mph - N/A   Overcast
11:55 PM 46.4 °F 43.5 °F 42.1 °F 85% 29.67 in 10.0 mi WNW 5.8 mph - N/A   Overcast